Location: Kawakawa
(35.3830°S, 174.0670°E)
Time: 20:06:44
(UTC+12:00)

Cosmos 1151 Rocket - Pass Details

Date: 24 January 2019
Orbit: 593 x 615 km, 82.5° (Epoch: 22 April)

Event Time Altitude Azimuth Distance (km) Brightness Sun altitude
Exits shadow 21:47:59 - 356° (N) 2,646 6.0 -13.2°
Reaches altitude 10° 21:49:44 10° 356° (N) 1,933 5.3 -13.5°
Maximum altitude 21:54:00 86° 81° (E) 612 2.9 -14.2°
Drops below altitude 10° 21:58:23 10° 172° (S) 1,972 6.0 -14.9°
Sets 22:00:37 0° 172° (S) 2,887 6.9 -15.3°
